Weather History for Worthington, MN

Change the Weather History Date:

Thursday, January 12, 2012

  Actual Average Record
Temperature  
Mean Temperature 6 °F -  
Max Temperature 10 °F 21 °F 44 °F (1987)
Min Temperature 3 °F 6 °F -18 °F (1974)
Degree Days  
Heating Degree Days 58    
Moisture  
Dew Point -2 °F    
Average Humidity 67    
Maximum Humidity 73    
Minimum Humidity 61    
Precipitation  
Precipitation 0.00 in - - ()
Sea Level Pressure  
Sea Level Pressure 29.88 in    
Wind  
Wind Speed 24 mph (NNW)    
Max Wind Speed 30 mph    
Max Gust Speed 40 mph    
Visibility 8 miles    
Events      
Averages and records for this station are not official NWS values.
T = Trace of Precipitation, MM = Missing Value Source: NWS Daily Summary

Daily Weather History Graph

Daily Weather History Graph

Search for Another Location

Airport:

Trip Planner

Search our weather history database for the weather conditions in past years. The results will help you decide how hot, cold, wet, or windy it might be!

Date:

Astronomy

Jan. 12, 2012 Rise Set
Actual Time 7:54 AM CST 5:07 PM CST
Civil Twilight 7:22 AM CST 5:39 PM CST
Nautical Twilight 6:46 AM CST 6:14 PM CST
Astronomical Twilight 6:12 AM CST 6:49 PM CST
Moon 9:23 PM CST (1/12) 9:30 AM CST (1/12)
Length of Visible Light 10h 16m
Length of Day
9h 12m
Waning Gibbous, 87% of the Moon is Illuminated
Jan 12
Waning Gibbous
Jan 16
Last Quarter
Jan 23
New
Jan 30
First Quarter
Feb 7
Full

Hourly Weather History & Observations

Time (CST) Temp. Windchill Dew Point Humidity Pressure Visibility Wind Dir Wind Speed Gust Speed Precip Events Conditions
12:15 AM - - - N/A% 29.90 in 10.0 mi NNW 25.3 mph 34.5 mph N/A   Partly Cloudy
12:35 AM 8.6 °F -12.3 °F -0.4 °F 67% 29.88 in 10.0 mi NNW 24.2 mph 32.2 mph N/A   Clear
12:55 AM 8.6 °F -11.9 °F -0.4 °F 67% 29.88 in 10.0 mi NNW 23.0 mph 32.2 mph N/A   Mostly Cloudy
1:15 AM - - - N/A% 29.89 in 10.0 mi NNW 25.3 mph 31.1 mph N/A   Mostly Cloudy
1:35 AM 8.6 °F -13.4 °F -2.2 °F 62% 29.91 in 10.0 mi NW 27.6 mph 32.2 mph N/A   Mostly Cloudy
1:55 AM 6.8 °F -13.4 °F -2.2 °F 67% 29.92 in 10.0 mi NW 20.7 mph 27.6 mph N/A   Overcast
2:15 AM 6.8 °F -13.4 °F -2.2 °F 67% 29.92 in 10.0 mi NW 20.7 mph 26.5 mph N/A   Overcast
2:35 AM 6.8 °F -12.9 °F -2.2 °F 67% 29.92 in 10.0 mi NW 19.6 mph 24.2 mph N/A   Overcast
2:55 AM 6.8 °F -12.4 °F -2.2 °F 67% 29.92 in 10.0 mi NNW 18.4 mph - N/A   Mostly Cloudy
3:15 AM 6.8 °F -12.4 °F -0.4 °F 72% 29.90 in 6.0 mi NNW 18.4 mph - N/A   Overcast
3:35 AM 6.8 °F -14.3 °F -0.4 °F 72% 29.90 in 2.0 mi North 23.0 mph - N/A   Overcast
3:55 AM 6.8 °F -14.7 °F -0.4 °F 72% 29.90 in 9.0 mi North 24.2 mph 28.8 mph N/A   Overcast
4:15 AM 6.8 °F -13.4 °F -0.4 °F 72% 29.89 in 10.0 mi NW 20.7 mph 26.5 mph N/A   Overcast
4:35 AM - - - N/A% 29.89 in 5.0 mi NW 27.6 mph 33.4 mph N/A   Overcast
4:55 AM 5.0 °F -16.7 °F -5.8 °F 61% 29.89 in 10.0 mi NNW 23.0 mph 34.5 mph N/A   Scattered Clouds
5:15 AM 3.2 °F -19.5 °F -4.0 °F 72% 29.88 in 10.0 mi NW 24.2 mph 32.2 mph N/A   Scattered Clouds
5:35 AM 5.0 °F -16.7 °F -4.0 °F 66% 29.89 in 10.0 mi NNW 23.0 mph 31.1 mph N/A   Overcast
5:55 AM 5.0 °F -14.7 °F -4.0 °F 66% 29.89 in 10.0 mi NW 18.4 mph 32.2 mph N/A   Overcast
6:15 AM 5.0 °F -16.7 °F -2.2 °F 72% 29.89 in 10.0 mi NW 23.0 mph 35.7 mph N/A   Overcast
6:35 AM 5.0 °F -18.3 °F -4.0 °F 66% 29.89 in 10.0 mi NW 27.6 mph 33.4 mph N/A   Overcast
6:55 AM - - - N/A% 29.88 in 10.0 mi NNW 26.5 mph 34.5 mph N/A   Overcast
7:15 AM - - - N/A% 29.87 in 10.0 mi NNW 28.8 mph 33.4 mph N/A   Overcast
7:35 AM - - - N/A% 29.88 in 10.0 mi NNW 24.2 mph 32.2 mph N/A   Overcast
7:55 AM 5.0 °F -15.7 °F -2.2 °F 72% 29.88 in 1.2 mi North 20.7 mph - N/A   Overcast
8:15 AM - - - N/A% 29.88 in 8.0 mi NW 26.5 mph 33.4 mph N/A   Overcast
8:35 AM 6.8 °F -14.3 °F -2.2 °F 67% 29.88 in 7.0 mi NNW 23.0 mph - N/A   Overcast
8:55 AM 6.8 °F -13.8 °F -2.2 °F 67% 29.88 in 6.0 mi North 21.9 mph 33.4 mph N/A   Overcast
9:15 AM - - - N/A% 29.88 in 5.0 mi NNW 25.3 mph 40.3 mph N/A   Overcast
9:35 AM - - - N/A% 29.88 in 4.0 mi NNW 27.6 mph 33.4 mph N/A   Overcast
9:55 AM 6.8 °F -14.7 °F -2.2 °F 67% 29.89 in 5.0 mi NNW 24.2 mph 29.9 mph N/A   Overcast
10:15 AM - - - N/A% 29.88 in 5.0 mi NNW 25.3 mph 32.2 mph N/A   Overcast
10:35 AM - - - N/A% 29.89 in 6.0 mi NNW 26.5 mph 34.5 mph N/A   Overcast
10:55 AM - - - N/A% 29.89 in 9.0 mi North 27.6 mph 35.7 mph N/A   Overcast
11:15 AM - - - N/A% 29.88 in 9.0 mi NNW 29.9 mph 38.0 mph N/A   Overcast
11:35 AM - - - N/A% 29.87 in 6.0 mi North 27.6 mph 34.5 mph N/A   Overcast
11:55 AM - - - N/A% 29.87 in 9.0 mi North 26.5 mph 29.9 mph N/A   Overcast
12:15 PM 8.6 °F -12.3 °F -2.2 °F 62% 29.87 in 8.0 mi NNW 24.2 mph 34.5 mph N/A   Overcast
12:35 PM 8.6 °F -12.7 °F -0.4 °F 67% 29.86 in 10.0 mi NNW 25.3 mph 34.5 mph N/A   Overcast
12:55 PM 8.6 °F -13.4 °F -0.4 °F 67% 29.86 in 10.0 mi NNW 27.6 mph 33.4 mph N/A   Overcast
1:15 PM 8.6 °F -10.5 °F -2.2 °F 62% 29.85 in 10.0 mi NNW 19.6 mph 28.8 mph N/A   Overcast
1:35 PM - - - N/A% 29.84 in 10.0 mi NNW 26.5 mph 35.7 mph N/A   Overcast
1:55 PM 8.6 °F -13.4 °F -0.4 °F 67% 29.85 in 9.0 mi NNW 27.6 mph 33.4 mph N/A   Overcast
2:15 PM - - - N/A% 29.84 in 10.0 mi NNW 24.2 mph 34.5 mph N/A   Overcast
2:35 PM - - - N/A% 29.85 in 10.0 mi NNW 25.3 mph 35.7 mph N/A   Overcast
2:55 PM 10.4 °F -9.9 °F -0.4 °F 62% 29.86 in 10.0 mi NNW 24.2 mph 39.1 mph N/A   Overcast
3:15 PM 10.4 °F -9.9 °F 1.4 °F 67% 29.86 in 7.0 mi NW 24.2 mph 32.2 mph N/A   Overcast
3:35 PM - - - N/A% 29.86 in 10.0 mi North 28.8 mph 36.8 mph N/A   Overcast
3:55 PM - - - N/A% 29.87 in 8.0 mi NNW 26.5 mph 34.5 mph N/A   Overcast
4:15 PM - - - N/A% 29.87 in 5.0 mi North 26.5 mph 32.2 mph N/A   Overcast
4:35 PM - - - N/A% 29.88 in 5.0 mi NW 29.9 mph 35.7 mph N/A   Overcast
5:15 PM - - - N/A% 29.88 in 10.0 mi NW 21.9 mph 28.8 mph N/A   Overcast
5:35 PM 8.6 °F -12.3 °F -0.4 °F 67% 29.89 in 10.0 mi North 24.2 mph 27.6 mph N/A   Overcast
5:55 PM 8.6 °F -11.9 °F -0.4 °F 67% 29.89 in 8.0 mi NNW 23.0 mph 29.9 mph N/A   Overcast
6:15 PM 8.6 °F -11.4 °F 1.4 °F 73% 29.89 in 10.0 mi NW 21.9 mph 25.3 mph N/A   Overcast
6:35 PM 6.8 °F -14.7 °F -0.4 °F 72% 29.90 in 10.0 mi NNW 24.2 mph 32.2 mph N/A   Overcast
6:55 PM 6.8 °F -14.3 °F -0.4 °F 72% 29.91 in 10.0 mi NNW 23.0 mph 29.9 mph N/A   Overcast
7:15 PM 6.8 °F -14.3 °F -0.4 °F 72% 29.91 in 10.0 mi NNW 23.0 mph 31.1 mph N/A   Overcast
7:35 PM 6.8 °F -13.4 °F -2.2 °F 67% 29.91 in 10.0 mi North 20.7 mph 26.5 mph N/A   Overcast
7:55 PM 6.8 °F -13.4 °F -2.2 °F 67% 29.91 in 10.0 mi NNW 20.7 mph 26.5 mph N/A   Mostly Cloudy
8:15 PM 5.0 °F -16.2 °F -2.2 °F 72% 29.92 in 10.0 mi North 21.9 mph 28.8 mph N/A   Scattered Clouds
8:35 PM 5.0 °F -16.2 °F -2.2 °F 72% 29.91 in 10.0 mi NNW 21.9 mph 27.6 mph N/A   Partly Cloudy
8:55 PM 5.0 °F -16.2 °F -2.2 °F 72% 29.91 in 10.0 mi North 21.9 mph 26.5 mph N/A   Clear
9:15 PM 3.2 °F -17.1 °F -2.2 °F 78% 29.91 in 10.0 mi North 18.4 mph - N/A   Clear
9:35 PM 3.2 °F -17.6 °F -4.0 °F 72% 29.92 in 10.0 mi North 19.6 mph 24.2 mph N/A   Clear
9:55 PM 3.2 °F -17.6 °F -4.0 °F 72% 29.92 in 10.0 mi North 19.6 mph - N/A   Clear
10:15 PM 3.2 °F -18.1 °F -4.0 °F 72% 29.92 in 10.0 mi North 20.7 mph - N/A   Clear
10:35 PM 3.2 °F -16.5 °F -4.0 °F 72% 29.92 in 10.0 mi North 17.3 mph 28.8 mph N/A   Clear
10:55 PM 3.2 °F -18.1 °F -4.0 °F 72% 29.92 in 10.0 mi NNW 20.7 mph - N/A   Clear
11:15 PM 3.2 °F -16.5 °F -4.0 °F 72% 29.92 in 10.0 mi North 17.3 mph 23.0 mph N/A   Clear
11:35 PM 3.2 °F -17.1 °F -5.8 °F 66% 29.92 in 10.0 mi North 18.4 mph - N/A   Clear
11:55 PM 1.4 °F -18.8 °F -4.0 °F 78% 29.91 in 10.0 mi North 17.3 mph - N/A   Clear